"Pseudo-MPEC" for C15FQ25

Created 2025 Oct 18 1:35:04 UT using Find_Orb

Click here for an explanation of pseudo-MPECs

 
 Astrometry: 
     C15FQ25* C2025 09 30.28038400 27 43.232+24 02 03.01   ~9U7Z 22.60GVNEOCPV00
     C15FQ25  C2025 09 30.28596600 27 43.520+24 01 44.51   ~9U7Z 21.93GVNEOCPV00
     C15FQ25  C2025 09 30.29154500 27 43.823+24 01 26.26   ~9U7Z 21.89GVNEOCPV00
     C15FQ25  C2025 09 30.29712700 27 44.140+24 01 07.61   ~9U7Z 22.07GVNEOCPV00
     C15FQ25 KC2025 09 30.36783900 27 48.085+23 57 09.97   ~9U9Z 21.60GVNEOCPV06
     C15FQ25 KC2025 09 30.37339800 27 48.416+23 56 50.89   ~9U9Z 21.93GVNEOCPV06
     C15FQ25 KC2025 09 30.37895600 27 48.740+23 56 32.17   ~9U9Z       VNEOCPV06
     C15FQ25 KC2025 09 30.38451400 27 49.079+23 56 13.16   ~9U9Z 22.09GVNEOCPV06
     C15FQ25  C2025 09 30.46284000 27 54.270+23 51 42.70   ~9UCK 21.4 RVNEOCP291
     C15FQ25  C2025 09 30.47431000 27 55.100+23 51 03.00   ~9UCK       VNEOCP291
     C15FQ25  C2025 09 30.48586000 27 55.940+23 50 22.30   ~9UCK 22.1 RVNEOCP291
     C15FQ25  C2025 10 01.16204000 29 03.670+23 12 04.70   ~A15K 22.2 RVNEOCP291
     C15FQ25 KC2025 10 01.17511700 29 02.70 +23 11 17.1    ~A155 21.9 GVNEOCPH21
     C15FQ25  C2025 10 01.17703000 29 04.620+23 11 14.60   ~A15K 21.5 RVNEOCP291
     C15FQ25 KC2025 10 01.18493800 29 03.30 +23 10 43.9    ~A155 22.1 GVNEOCPH21
     C15FQ25  C2025 10 01.19203000 29 05.630+23 10 24.10   ~A15K 22.1 RVNEOCP291

Station data:
(291) LPL/Spacewatch II  (N31.961669 W111.599905)  US/Arizona.  Observers J.
   V. Scotti, R. S. McMillan. 1.8-m f/2.7 reflector + CCD.
(H21) Astronomical Research Observatory, Westfield  (N39.483054 W87.968270)
   US/Illinois.  Observer R. Holmes. Measurers S. Foglia, L. Buzzi, T.
   Linder, R. Holmes. 0.40-m f/5.32 astrograph + CCD.
(V00) Kitt Peak-Bok  (N31.963125 W111.600190)  US/Arizona. Measurers T.
   Beuden, V. F. Carvajal, D. Fay, J. B. Fazekas, D. C. Fuls, A. R. Gibbs, A.
   D. Grauer, H. Gröller, J. K. Hogan, R. A. Kowalski, S. M. Larson, G. J.
   Leonard, D. Rankin, R. L. Seaman, F. C. Shelly, K. W. Wierzchoś. 2.25-m
   reflector + 4x4K mosaic CCD.
(V06) Catalina Sky Survey-Kuiper  (N32.416871 W110.732550)  US/Arizona.
   Measurers T. Beuden, V. F. Carvajal, D. Fay, J. B. Fazekas, D. C. Fuls, A.
   R. Gibbs, A. D. Grauer, H. Gröller, J. K. Hogan, R. A. Kowalski, S. M.
   Larson, G. J. Leonard, D. Rankin, R. L. Seaman, F. C. Shelly, K. W.
   Wierzchoś. 1.55-m reflector + CCD.

Orbital elements:  C15FQ25
   Perihelion 2025 Nov 17.972674 +/- 2.13 TT = 23:20:39.0 (JD 2460997.472674)
Epoch 2025 Oct  1.0 TT = JDT 2460949.5   Earth MOID: 0.0899      AutoNEOCP
M 324.604270388 +/- 1.5             (J2000 ecliptic)
n   0.737831068 +/- 0.00116         Peri.  211.290690 +/- 2.2
a   1.212917951 +/- 0.00127         Node   201.089936 +/- 0.13
e   0.11488569 +/- 0.00302          Incl.    8.309647 +/- 0.09
P   1.336/487.907d         H 25.88  G  0.15   U  8.2
q 1.073571030 +/- 0.00365    Q 1.352264872 +/- 0.00414
From 16 observations 2025 Sept. 30-Oct. 1 (21.9 hr); mean residual 0".27
Residuals in arcseconds: 
250930 V00  .53+  .05-    250930 V06  .47-  .26+    251001 H21  .13+  .08-    
250930 V00  .15+  .16-    250930 V06  .42-  .24+    251001 291  .47-  .02-    
250930 V00  .01-  .01+    250930 291  .31+  .31-    251001 H21  .03-  .23+    
250930 V00  .03+  .18-    250930 291  .45+  .07+    251001 291  .17-  .23-    
250930 V06  .38-  .20+    250930 291  .33+  .17-    
250930 V06  .36-  .03+    251001 291  .47+  .02+    

Ephemerides (geocentric):
Date (UTC) HH   RA             Dec           delta  r     elong  mag " sig PA
---- --------  ------------   ------------  ------ ------ -----  --- --------
2025 10 18 02  00 58 23.513   +01 23 52.83  .09256 1.0873 168.5 21.6  301 162
2025 10 18 03  00 58 28.439   +01 20 11.14  .09256 1.0872 168.4 21.6  302 162
2025 10 18 04  00 58 33.369   +01 16 29.46  .09255 1.0872 168.4 21.6  304 162
2025 10 18 05  00 58 38.301   +01 12 47.81  .09255 1.0872 168.3 21.6  305 162
2025 10 18 06  00 58 43.235   +01 09 06.16  .09254 1.0871 168.2 21.6  307 162
2025 10 18 07  00 58 48.173   +01 05 24.54  .09254 1.0871 168.2 21.6  308 162
2025 10 18 08  00 58 53.112   +01 01 42.94  .09254 1.0871 168.1 21.6  310 162
2025 10 18 09  00 58 58.054   +00 58 01.36  .09253 1.0870 168.0 21.6  311 162
2025 10 18 10  00 59 02.999   +00 54 19.80  .09253 1.0870 168.0 21.6  313 162
2025 10 18 11  00 59 07.946   +00 50 38.27  .09253 1.0870 167.9 21.6  315 162
2025 10 18 12  00 59 12.896   +00 46 56.76  .09252 1.0869 167.8 21.6  316 162
2025 10 18 13  00 59 17.849   +00 43 15.28  .09252 1.0869 167.7 21.6  318 162
2025 10 18 14  00 59 22.803   +00 39 33.82  .09252 1.0868 167.7 21.6  319 162
2025 10 18 15  00 59 27.761   +00 35 52.40  .09251 1.0868 167.6 21.6  321 162
2025 10 18 16  00 59 32.721   +00 32 11.00  .09251 1.0868 167.5 21.6  323 162
2025 10 18 17  00 59 37.683   +00 28 29.64  .09251 1.0867 167.5 21.6  324 162
2025 10 18 18  00 59 42.648   +00 24 48.32  .09251 1.0867 167.4 21.6  326 162
2025 10 18 19  00 59 47.616   +00 21 07.02  .09251 1.0867 167.3 21.6  327 162
2025 10 18 20  00 59 52.586   +00 17 25.77  .09251 1.0866 167.3 21.6  329 162
2025 10 18 21  00 59 57.558   +00 13 44.55  .09251 1.0866 167.2 21.6  331 162
2025 10 18 22  01 00 02.533   +00 10 03.37  .09250 1.0866 167.1 21.6  332 162
2025 10 18 23  01 00 07.511   +00 06 22.23  .09250 1.0865 167.1 21.6  334 162
2025 10 19 00  01 00 12.491   +00 02 41.14  .09250 1.0865 167.0 21.6  335 162
2025 10 19 01  01 00 17.473   -00 00 59.92  .09250 1.0865 166.9 21.6  337 162
2025 10 19 02  01 00 22.459   -00 04 40.93  .09250 1.0864 166.8 21.6  339 162
2025 10 19 03  01 00 27.446   -00 08 21.89  .09250 1.0864 166.8 21.6  340 162
2025 10 19 04  01 00 32.436   -00 12 02.81  .09250 1.0864 166.7 21.6  342 162
2025 10 19 05  01 00 37.429   -00 15 43.67  .09250 1.0863 166.6 21.6  344 162
2025 10 19 06  01 00 42.424   -00 19 24.49  .09250 1.0863 166.6 21.6  345 162
2025 10 19 07  01 00 47.422   -00 23 05.26  .09251 1.0862 166.5 21.6  347 162
2025 10 19 08  01 00 52.422   -00 26 45.97  .09251 1.0862 166.4 21.6  348 162
2025 10 19 09  01 00 57.424   -00 30 26.63  .09251 1.0862 166.4 21.6  350 162
2025 10 19 10  01 01 02.429   -00 34 07.24  .09251 1.0861 166.3 21.6  352 162
2025 10 19 11  01 01 07.437   -00 37 47.79  .09251 1.0861 166.2 21.6  353 162
2025 10 19 12  01 01 12.447   -00 41 28.28  .09251 1.0861 166.1 21.6  355 162
2025 10 19 13  01 01 17.459   -00 45 08.71  .09251 1.0860 166.1 21.6  357 162
2025 10 19 14  01 01 22.474   -00 48 49.08  .09252 1.0860 166.0 21.6  358 162
2025 10 19 15  01 01 27.492   -00 52 29.39  .09252 1.0860 165.9 21.6  360 162
2025 10 19 16  01 01 32.512   -00 56 09.63  .09252 1.0859 165.9 21.6  362 162
2025 10 19 17  01 01 37.534   -00 59 49.81  .09253 1.0859 165.8 21.6  363 162
2025 10 19 18  01 01 42.559   -01 03 29.93  .09253 1.0859 165.7 21.7  365 162
2025 10 19 19  01 01 47.586   -01 07 09.98  .09253 1.0858 165.6 21.7  367 162
2025 10 19 20  01 01 52.616   -01 10 49.96  .09253 1.0858 165.6 21.7  368 162
2025 10 19 21  01 01 57.648   -01 14 29.87  .09254 1.0858 165.5 21.7  370 162
2025 10 19 22  01 02 02.683   -01 18 09.71  .09254 1.0857 165.4 21.7  372 162
2025 10 19 23  01 02 07.720   -01 21 49.47  .09255 1.0857 165.4 21.7  373 162
2025 10 20 00  01 02 12.760   -01 25 29.16  .09255 1.0857 165.3 21.7  375 162
2025 10 20 01  01 02 17.802   -01 29 08.78  .09256 1.0856 165.2 21.7  377 162